Location: Austin
(30.3000°N, 97.7500°W)
Time: 02:00:45
(UTC-05:00)

Tiangong - Pass Details

Date: 11 June 2024
Orbit: 378 x 384 km, 41.5° (Epoch: 21 June)

Event Time Altitude Azimuth Distance (km) Brightness Sun altitude
Rises 23:41:26 0° 309° (NW) 2,250 2.7 -30.4°
Reaches altitude 10° 23:43:45 10° 324° (NW) 1,394 1.6 -30.7°
Enters shadow 23:43:46 10° 324° (NW) 1,388 1.6 -30.7°
